Probability
26 26 23 23 23 16 16 13 16 16 16 16 13 13 13 13 6 6 6 6 6 6 6 3 3 3 3 3 3 3 3 3 6 10 6 6 10 10 6 6 6 6 6
26 26 26 26 19 23 23 16 16 13 16 16 10 10 10 10 6 6 6 6 6 10 6 6 6 6 6 6 6 6 6 3 10 10 13 10 10 6 6 6 6 6 6
26 23 29 29 26 23 26 26 23 23 16 10 16 13 10 10 6 6 6 6 6 6 6 6 6 6 6 6 6 6 6 6 10 10 13 10 6 6 6 6 6 6 6
23 23 23 23 26 29 26 26 23 19 23 16 10 10 6 6 3 3 3 3 6 6 6 6 6 6 6 6 6 6 6 10 10 6 13 13 6 6 6 6 6 6 6
23 23 23 19 19 23 26 26 23 19 16 6 3 6 6 6 6 6 6 6 6 3 6 6 6 6 6 6 6 10 10 10 6 6 10 10 6 6 10 6 10 6 10
16 19 16 16 19 19 23 19 19 16 13 6 6 6 6 6 6 0 6 6 6 6 6 6 6 6 3 0 0 0 6 6 6 6 6 10 10 6 10 10 10 10 10
10 10 13 13 16 16 19 19 13 6 10 6 10 6 6 6 0 0 0 0 6 6 6 6 6 6 6 6 3 0 0 0 0 6 6 6 10 6 6 6 6 10 10
10 10 10 10 10 16 13 13 6 6 6 6 6 6 10 10 3 0 0 0 6 6 6 6 6 6 6 6 6 6 3 3 3 0 3 6 6 10 6 6 6 6 3
13 10 10 10 13 6 10 10 6 6 3 3 3 6 6 6 3 0 0 0 6 6 6 6 6 6 6 3 6 6 6 6 3 3 3 3 3 0 0 3 3 3 3
6 6 6 10 10 10 6 3 3 0 0 3 0 0 6 6 3 0 0 0 6 6 6 6 6 6 6 0 6 6 3 3 3 3 3 0 0 0 0 0 3 3 3
3 3 10 13 10 6 3 3 3 0 0 0 0 0 0 0 0 0 0 0 3 6 6 6 6 0 0 0 0 3 3 3 3 3 3 3 3 3 3 0 0 0 0
3 6 6 10 6 3 3 3 3 0 0 0 0 0 0 0 0 0 0 0 0 0 0 3 3 0 0 0 0 0 0 0 3 3 0 0 6 3 3 0 0 0 0
3 6 6 6 6 3 3 3 0 0 0 0 0 0 0 0 0 0 0 0 0 0 0 3 3 0 0 0 0 0 0 0 0 0 0 3 3 3 3 3 0 0 0
3 10 6 6 3 3 3 3 3 0 0 0 0 0 0 0 0 0 0 0 0 0 0 0 0 0 0 0 0 0 0 0 0 0 0 0 0 0 0 0 0 0 0
6 10 3 3 3 3 3 3 3 0 0 0 0 0 0 0 0 0 0 0 0 0 0 0 0 0 0 3 3 0 0 0 0 0 0 0 0 0 0 0 0 0 0
3 3 3 3 3 3 3 0 0 0 0 0 0 0 0 0 0 0 0 0 0 0 0 0 0 0 0 0 3 0 0 0 0 0 0 0 0 0 0 0 0 0 0
0 0 3 3 3 3 3 0 0 0 0 0 0 0 0 0 0 0 0 0 0 0 0 0 0 0 0 0 0 0 0 0 0 0 0 0 0 0 0 0 0 0 0
0 0 3 3 3 3 3 3 0 0 0 0 0 0 0 0 0 0 0 0 0 0 0 0 0 0 0 0 0 0 0 0 0 0 0 0 0 0 0 0 0 0 0
3 3 3 3 3 3 3 3 0 0 0 0 0 0 0 0 0 0 0 0 0 0 0 0 0 0 0 0 0 0 0 0 0 0 0 0 0 0 0 0 0 0 0
3 3 3 3 3 3 0 0 0 0 0 0 0 0 0 0 0 0 0 0 0 0 0 0 0 0 0 0 0 0 0 0 0 0 0 0 0 0 0 0 0 0 0
3 3 3 3 3 3 0 0 0 0 0 0 0 0 0 0 0 0 0 0 0 0 0 0 0 0 0 0 0 0 0 0 0 0 0 0 0 0 0 0 0 0 0
3 3 3 3 3 3 0 0 0 0 0 0 0 0 0 0 0 0 0 0 0 0 0 0 0 0 0 0 0 0 0 0 0 0 0 0 0 0 0 0 0 0 0
3 3 3 3 3 0 0 0 0 0 0 0 0 0 0 0 0 0 0 0 0 0 0 0 0 0 0 0 0 0 0 0 0 0 0 0 0 0 0 0 0 0 0
3 3 3 3 3 0 0 3 0 0 0 0 0 0 0 0 0 0 0 0 0 0 0 0 0 0 0 0 0 0 0 0 0 0 0 0 0 0 0 0 0 0 0
3 3 3 3 3 3 0 0 0 0 0 0 0 0 0 0 0 0 0 0 0 0 0 0 0 0 0 0 0 0 0 0 0 0 0 0 0 0 0 0 0 0 0
3 3 3 3 3 3 3 0 0 0 0 0 0 0 0 0 0 0 0 0 0 0 0 0 0 0 0 0 0 0 0 0 0 0 0 0 0 0 0 0 0 0 0
Height
5837 5837 5837 5837 5836 5836 5836 5836 5836 5836 5836 5836 5837 5837 5837 5837 5837 5837 5836 5836 5836 5835 5835 5834 5834 5834 5833 5833 5833 5833 5832 5832 5832 5831 5830 5829 5828 5827 5826 5825 5824 5823 5822
5832 5832 5832 5832 5832 5832 5832 5832 5832 5832 5832 5832 5832 5833 5833 5833 5833 5832 5832 5832 5831 5831 5831 5830 5830 5830 5829 5829 5829 5828 5828 5828 5827 5826 5825 5824 5824 5823 5822 5821 5819 5818 5817
5826 5827 5827 5827 5828 5828 5827 5827 5827 5827 5827 5827 5828 5828 5828 5828 5829 5828 5828 5828 5827 5827 5826 5826 5826 5825 5825 5825 5824 5824 5823 5823 5822 5821 5820 5819 5819 5817 5816 5815 5814 5812 5810
5820 5821 5822 5822 5822 5822 5822 5822 5822 5822 5822 5822 5823 5823 5823 5824 5824 5824 5823 5823 5823 5822 5822 5821 5821 5821 5820 5820 5819 5818 5818 5817 5817 5816 5815 5814 5813 5812 5810 5809 5807 5806 5804
5814 5815 5815 5816 5816 5816 5816 5816 5816 5817 5817 5817 5818 5818 5818 5818 5818 5818 5817 5818 5818 5818 5817 5816 5816 5815 5815 5814 5813 5812 5812 5811 5810 5810 5809 5808 5807 5805 5804 5803 5801 5800 5798
5807 5808 5809 5809 5810 5810 5811 5811 5811 5811 5812 5812 5812 5812 5813 5812 5812 5812 5812 5812 5812 5812 5811 5811 5810 5809 5809 5808 5807 5806 5805 5804 5804 5803 5802 5801 5800 5799 5797 5796 5794 5793 5792
5800 5801 5802 5803 5803 5804 5804 5805 5806 5806 5806 5806 5807 5807 5807 5807 5807 5807 5807 5806 5806 5806 5806 5805 5804 5803 5802 5802 5801 5799 5798 5797 5797 5796 5795 5794 5793 5792 5790 5789 5787 5785 5784
5793 5794 5795 5796 5796 5797 5798 5799 5799 5800 5800 5800 5800 5801 5801 5801 5801 5801 5801 5801 5800 5800 5799 5798 5798 5797 5796 5794 5793 5792 5791 5790 5789 5788 5787 5786 5785 5784 5782 5781 5779 5778 5776
5785 5786 5787 5788 5789 5790 5791 5792 5792 5793 5793 5794 5794 5794 5795 5795 5795 5795 5794 5794 5794 5793 5792 5791 5790 5790 5788 5787 5786 5785 5783 5782 5781 5780 5779 5778 5777 5776 5774 5773 5771 5770 5769
5779 5779 5780 5781 5782 5783 5784 5784 5785 5785 5786 5786 5787 5787 5787 5788 5788 5788 5787 5787 5786 5786 5785 5784 5783 5782 5781 5779 5778 5777 5775 5774 5773 5772 5771 5770 5768 5767 5766 5764 5763 5761 5760
5771 5772 5772 5773 5774 5775 5776 5776 5777 5777 5778 5779 5779 5779 5780 5780 5780 5780 5779 5779 5778 5778 5777 5776 5775 5774 5773 5771 5770 5769 5768 5766 5765 5764 5763 5761 5760 5758 5756 5755 5753 5752 5750
5763 5764 5765 5766 5767 5767 5768 5769 5769 5769 5770 5770 5771 5771 5771 5772 5772 5771 5771 5770 5770 5769 5769 5768 5767 5765 5764 5763 5762 5761 5759 5758 5757 5756 5754 5753 5751 5749 5747 5745 5744 5742 5740
5756 5756 5757 5758 5759 5760 5760 5761 5761 5761 5761 5761 5761 5762 5763 5763 5763 5762 5762 5761 5761 5760 5760 5759 5758 5756 5755 5754 5753 5752 5750 5749 5748 5747 5745 5744 5742 5740 5738 5736 5734 5732 5730
5748 5749 5750 5750 5751 5752 5752 5753 5753 5753 5753 5753 5753 5753 5754 5754 5754 5753 5752 5752 5752 5751 5751 5750 5749 5747 5746 5744 5743 5742 5741 5739 5738 5737 5736 5734 5732 5731 5729 5727 5725 5723 5721
5740 5741 5741 5742 5743 5744 5744 5744 5744 5745 5745 5745 5745 5745 5745 5745 5745 5744 5743 5743 5743 5742 5741 5741 5740 5738 5737 5735 5734 5733 5732 5730 5729 5728 5726 5725 5724 5722 5720 5717 5716 5714 5712
5733 5732 5732 5733 5733 5734 5736 5736 5736 5736 5736 5736 5736 5736 5736 5736 5735 5735 5735 5734 5734 5733 5732 5731 5730 5729 5728 5726 5725 5724 5722 5721 5720 5718 5717 5716 5714 5713 5711 5708 5706 5704 5703
5725 5724 5725 5725 5725 5727 5728 5728 5728 5727 5727 5727 5727 5726 5727 5726 5726 5725 5725 5725 5724 5724 5723 5722 5721 5720 5719 5717 5716 5715 5713 5712 5710 5709 5708 5706 5705 5703 5701 5699 5697 5695 5694
5717 5717 5717 5717 5718 5718 5719 5719 5719 5719 5719 5718 5718 5718 5717 5717 5716 5716 5716 5715 5715 5714 5713 5712 5711 5710 5709 5708 5706 5705 5704 5702 5701 5700 5698 5696 5695 5693 5691 5689 5688 5686 5684
5709 5709 5709 5709 5709 5710 5710 5710 5710 5710 5710 5710 5710 5709 5709 5708 5707 5706 5706 5706 5705 5704 5703 5703 5702 5701 5700 5698 5697 5696 5695 5693 5692 5691 5689 5687 5685 5683 5682 5680 5678 5677 5675
5701 5701 5701 5701 5702 5702 5702 5702 5702 5702 5702 5702 5701 5701 5700 5699 5698 5697 5697 5696 5696 5695 5694 5693 5692 5691 5690 5689 5688 5687 5686 5684 5683 5682 5680 5678 5676 5675 5673 5671 5669 5668 5666
5694 5694 5694 5694 5694 5694 5694 5694 5694 5694 5693 5693 5693 5692 5691 5690 5690 5689 5689 5688 5687 5686 5685 5684 5682 5681 5680 5679 5679 5678 5677 5676 5674 5673 5671 5670 5668 5666 5664 5662 5661 5659 5657
5687 5687 5687 5687 5686 5686 5686 5686 5686 5685 5685 5684 5684 5683 5683 5682 5681 5680 5680 5679 5678 5676 5675 5674 5673 5672 5671 5670 5669 5668 5667 5666 5665 5663 5662 5661 5659 5657 5656 5654 5652 5650 5648
5679 5679 5679 5679 5679 5678 5678 5678 5677 5677 5676 5675 5675 5674 5674 5673 5672 5671 5670 5669 5668 5667 5666 5665 5664 5662 5661 5660 5659 5658 5658 5656 5655 5654 5653 5651 5650 5648 5646 5645 5643 5641 5639
5671 5671 5671 5671 5671 5670 5670 5669 5668 5668 5667 5666 5665 5665 5664 5663 5662 5661 5660 5659 5658 5657 5656 5655 5654 5653 5651 5650 5649 5648 5648 5646 5645 5644 5643 5642 5640 5639 5637 5636 5634 5632 5630
5663 5663 5663 5663 5663 5662 5662 5661 5660 5659 5659 5658 5657 5656 5655 5654 5653 5652 5651 5650 5649 5648 5646 5645 5644 5643 5642 5641 5640 5639 5638 5637 5636 5634 5633 5632 5631 5629 5628 5627 5625 5623 5621
5655 5655 5655 5655 5655 5654 5654 5653 5653 5652 5651 5650 5649 5648 5647 5646 5645 5644 5643 5642 5640 5638 5637 5636 5635 5634 5633 5632 5631 5630 5629 5628 5627 5625 5624 5623 5622 5620 5619 5617 5616 5614 5612
Wind_Speed
17 17 18 17 17 16 16 16 16 15 15 16 15 15 15 15 14 14 14 14 13 13 13 13 13 13 14 14 15 15 16 16 16 16 16 17 17 17 17 18 19 19 20
19 19 19 19 18 17 17 17 17 16 16 17 16 16 16 16 15 15 16 15 15 15 15 15 15 15 15 16 16 17 17 17 17 17 18 18 18 18 19 19 20 21 21
21 21 20 19 18 18 18 19 18 18 18 18 18 18 17 17 17 17 18 17 17 16 16 16 16 17 17 17 18 18 19 19 19 19 19 20 20 20 20 21 22 22 22
22 22 20 20 19 19 19 19 19 19 19 19 19 19 19 19 20 20 19 18 18 18 17 17 18 18 19 19 19 20 20 20 21 21 21 21 22 22 23 23 23 23 23
23 23 22 21 21 21 21 20 19 20 20 19 20 21 21 21 21 21 20 20 19 19 19 19 19 19 19 20 21 21 22 22 22 23 23 23 23 24 24 24 24 25 25
23 23 23 23 22 22 22 21 21 21 21 21 21 21 21 21 21 21 21 21 20 21 20 20 21 21 21 22 22 22 23 23 23 24 24 24 24 25 25 26 26 26 26
24 24 24 24 23 23 23 22 22 21 21 21 21 22 22 21 21 22 23 22 22 21 21 22 22 22 23 24 24 24 24 24 25 25 25 25 25 27 27 27 27 27 27
25 25 25 25 24 24 23 23 23 22 22 22 22 23 23 22 23 23 23 24 23 23 23 22 23 22 23 24 25 25 26 26 26 27 27 27 26 27 28 28 28 28 28
25 25 26 26 25 25 25 24 24 24 24 24 24 24 24 24 24 24 25 25 25 25 25 25 24 24 25 25 26 27 27 27 28 27 28 27 28 28 29 29 29 28 28
26 27 26 25 26 26 26 26 26 25 25 26 26 26 26 26 26 26 26 26 26 26 26 26 26 26 27 28 28 27 27 27 27 27 28 29 29 29 30 30 31 31 31
26 26 26 25 25 26 27 27 27 27 27 27 27 28 28 28 28 28 28 28 28 28 28 28 28 28 28 29 29 29 29 29 29 29 30 30 30 30 31 32 33 33 33
25 25 26 26 26 27 27 27 27 28 28 29 29 30 30 29 30 30 30 30 30 30 30 30 30 30 30 30 30 30 30 30 29 30 31 31 31 32 32 33 33 34 33
25 25 25 26 26 26 27 27 27 28 28 29 30 30 31 31 32 32 31 31 30 31 31 31 31 30 30 31 31 30 30 31 31 31 31 31 32 32 32 32 33 33 33
25 25 26 26 26 27 27 27 27 27 28 28 29 30 31 31 32 32 31 31 31 31 32 32 32 31 31 31 30 30 31 32 31 31 31 31 31 31 31 32 32 32 32
25 26 27 27 28 28 27 27 27 27 27 28 29 30 30 31 32 31 30 30 31 32 32 32 32 32 32 32 32 32 31 31 31 31 30 30 30 31 31 31 32 32 31
25 26 26 27 28 27 27 28 28 28 28 29 30 30 30 30 30 30 30 30 31 32 32 32 32 31 31 31 32 32 31 31 30 30 30 30 31 31 31 31 31 31 31
25 25 26 26 26 27 27 28 28 28 28 29 29 28 28 28 29 29 30 30 31 31 31 31 31 31 31 31 31 31 31 30 29 29 29 30 30 31 30 30 30 31 31
25 26 26 27 27 27 27 27 28 28 28 27 28 27 28 28 29 29 30 30 30 31 31 30 30 31 31 30 30 30 29 29 29 29 29 29 30 30 30 29 29 30 30
26 26 26 26 26 25 25 25 26 26 26 27 27 28 28 29 29 29 28 29 30 30 30 30 30 30 30 29 29 29 28 28 28 28 28 29 29 29 28 28 28 28 29
24 24 24 25 25 25 25 25 25 26 26 27 27 27 27 27 27 28 28 28 28 28 29 30 30 30 30 29 28 27 27 27 28 28 28 28 28 27 27 28 28 28 29
24 24 24 24 24 25 26 26 26 27 27 27 27 27 27 27 27 27 27 28 28 29 30 30 30 30 30 29 28 28 28 29 29 28 28 28 28 27 27 27 27 28 29
23 24 24 24 24 25 25 26 27 27 26 26 26 27 28 28 28 28 28 28 29 30 30 31 31 30 30 29 29 29 29 29 29 29 29 29 28 28 28 27 27 27 28
24 25 25 25 25 25 26 26 26 27 26 27 27 27 28 28 28 29 29 29 29 30 30 31 30 30 29 29 28 28 29 29 29 30 29 28 28 28 28 28 28 28 28
23 23 24 24 24 24 25 26 26 26 26 27 27 27 28 28 28 29 29 29 29 30 31 31 30 29 28 28 29 29 29 29 29 29 29 28 28 28 28 29 29 29 29
23 23 23 23 24 24 25 25 25 25 25 26 26 26 27 28 28 29 28 28 29 29 30 29 29 28 28 28 27 28 28 28 28 28 28 28 28 28 29 29 29 29 29
22 22 23 23 23 23 24 24 24 23 24 25 25 25 26 27 27 27 28 28 28 29 28 28 27 27 27 27 26 27 27 28 28 28 28 28 28 29 29 29 29 29 30
Wind_Direction
263 264 265 265 266 266 268 267 268 268 269 273 274 276 277 278 280 281 282 282 282 280 278 280 277 274 274 274 275 275 277 277 278 280 283 285 287 286 285 285 287 286 285
265 264 267 268 267 265 264 266 267 269 270 271 271 272 273 275 277 279 281 282 280 279 277 277 277 275 275 275 277 277 278 278 279 281 283 283 285 285 284 286 288 288 288
262 264 266 266 265 266 269 268 269 271 273 270 269 270 272 272 275 278 279 279 279 279 280 278 280 279 278 278 278 279 279 278 278 281 282 284 284 284 284 286 286 287 288
260 262 263 266 266 266 268 267 265 268 272 268 267 271 270 271 273 275 277 277 278 279 279 278 280 281 280 279 279 279 278 277 278 279 281 282 282 282 283 285 286 286 286
261 261 263 265 267 267 266 267 268 269 269 267 269 271 271 272 273 274 277 277 278 279 280 278 277 278 279 280 280 280 280 278 278 278 279 280 281 282 283 284 285 284 285
259 262 262 264 264 263 264 265 266 268 269 269 269 268 270 273 274 277 278 278 282 280 280 279 277 278 277 278 279 281 282 281 279 279 279 279 280 281 283 284 284 284 285
261 262 260 263 263 261 262 264 266 268 269 270 268 270 271 273 276 277 280 280 280 280 279 280 279 280 281 279 279 281 282 282 280 279 279 279 279 280 282 284 285 284 285
260 260 258 260 260 260 261 263 266 268 269 269 268 270 271 272 274 276 278 279 279 280 280 280 280 281 281 280 280 281 281 280 281 280 279 279 280 283 283 282 284 285 286
259 259 258 257 258 259 261 264 266 268 269 268 267 268 270 272 273 275 277 279 280 280 281 282 281 280 282 282 283 282 281 280 280 279 279 279 280 282 284 285 285 285 285
261 262 260 259 258 259 261 263 265 268 270 270 270 269 268 270 272 274 277 279 279 280 280 280 279 280 282 283 284 284 284 283 281 280 281 280 280 282 284 286 286 286 285
266 265 262 262 261 261 263 264 265 268 271 271 271 270 269 270 272 274 276 277 278 279 279 279 280 280 281 283 284 284 284 283 282 283 284 284 282 283 284 285 285 286 286
264 263 263 263 263 263 265 266 267 269 270 270 271 270 270 271 273 274 275 277 278 278 279 280 281 279 279 281 282 282 282 282 283 284 284 285 285 285 286 286 287 287 287
263 263 263 263 262 263 264 266 268 270 271 271 272 272 271 272 274 275 275 276 276 278 279 281 283 282 280 280 280 281 281 282 283 284 284 284 285 286 286 287 288 288 288
266 264 264 264 262 263 265 266 267 269 271 272 273 273 273 273 275 276 275 275 276 277 278 280 282 283 283 282 281 281 281 282 283 283 283 284 285 286 287 288 288 288 288
268 267 265 264 262 263 264 266 267 269 271 272 274 275 274 274 275 274 276 277 277 277 278 279 280 280 281 282 282 283 283 284 283 282 282 283 285 287 288 289 288 287 287
269 267 265 265 262 261 263 265 268 270 271 273 274 275 273 274 274 275 276 277 278 278 278 279 280 279 280 281 283 284 284 285 284 282 283 285 286 287 288 288 288 287 287
271 269 265 264 263 264 266 266 268 271 272 273 273 274 275 276 276 277 277 278 278 279 279 279 279 279 281 282 283 283 284 284 283 282 283 285 286 287 287 288 288 287 286
271 270 269 268 267 268 267 267 269 271 273 274 275 275 276 277 277 278 279 279 279 278 278 279 279 280 281 282 282 283 283 283 283 283 283 285 285 286 287 287 286 286 286
272 271 270 270 271 268 267 268 270 272 274 275 276 276 277 277 277 277 278 279 278 278 278 279 280 281 282 283 283 284 284 283 284 283 284 286 286 286 286 286 286 286 287
273 273 273 273 272 269 269 271 273 275 276 276 277 278 278 278 277 277 277 278 279 280 280 280 280 280 280 282 282 282 284 284 284 284 285 285 286 286 286 287 288 288 289
273 272 272 272 272 272 271 272 273 275 276 275 277 279 279 278 278 278 278 279 280 280 281 281 280 280 279 279 280 281 281 282 283 284 285 286 286 287 288 289 289 290 290
273 271 271 272 273 273 273 274 275 276 275 275 277 278 276 276 279 280 280 281 282 282 280 279 279 279 278 279 280 281 280 281 282 283 284 285 285 286 288 290 291 291 289
273 271 272 273 273 274 276 277 277 276 275 276 277 276 275 276 279 280 280 280 280 280 281 281 281 279 279 279 279 279 279 280 282 283 283 283 284 285 286 287 289 290 289
273 272 273 274 275 275 276 278 279 277 275 276 277 276 278 279 280 281 281 281 281 281 282 281 280 279 279 279 278 278 278 280 281 282 283 283 283 284 285 285 285 286 287
274 273 274 275 275 275 278 279 279 278 277 278 280 280 280 281 282 282 282 281 281 280 281 281 278 277 277 278 278 279 280 280 280 281 283 284 285 286 285 284 285 287 288
275 273 273 274 275 276 278 279 278 278 278 280 282 282 283 284 284 283 282 282 282 282 282 281 280 278 276 276 278 279 280 281 281 282 283 283 284 284 285 285 285 287 289